Location: Mauries
(43.6188°N, 0.3322°W)
Time: 22:45:05
(UTC+00:00)

CUBEBUG 2 - Pass Details

Date: 21 May 2026
Orbit: 545 x 628 km, 97.9° (Epoch: 5 June)

Event Time Altitude Azimuth Distance (km) Brightness Sun altitude
Rises 03:40:37 0° 355° (N) 2,722 ? -8.4°
Reaches altitude 10° 03:43:26 10° 333° (NNW) 1,823 ? -8.0°
Maximum altitude 03:45:47 16° 296° (WNW) 1,498 ? -7.6°
Drops below altitude 10° 03:48:08 10° 259° (W) 1,822 ? -7.3°
Enters shadow 03:48:46 - 252° (WSW) 1,994 ? -7.2°
